Regional Weather Roundup
Issued by NWS Midland/Odessa, TX

Home | Current Version | Previous Version | Text Only | Print | Product List | Glossary On
Versions: 1 2 3 4 5 6 7 8 9 10 11 12 13 14 15 16 17 18 19 20 21 22 23 24 25 26 27 28 29 30 31 32 33 34 35 36 37 38 39 40 41 42 43 44 45 46 47 48 49 50
000
ASUS44 KMAF 260210
RWRMAF
MIDLAND AREA WEATHER ROUNDUP
NATIONAL WEATHER SERVICE MIDLAND TX
900 PM CDT SUN JUN 25 2017

...IN SOUTHWEST TEXAS AND SOUTHEAST NEW MEXICO...

CITY           SKY/WX    TMP DP  RH WIND       PRES   REMARKS
ALPINE         MOCLDY    79  55  42 SE12      30.25R
ANDREWS          N/A     82  60  47 SE14      30.14R
ARTESIA        CLOUDY    86  57  37 S14       30.12R
BIG SPRING     CLOUDY    81  61  51 E9G17     30.16R
CARLSBAD       CLOUDY    88  56  33 SE12      30.09R
DRYDEN           N/A     87  61  41 SE12      30.07R
FORT STOCKTON  CLEAR     86  58  38 SE14      30.10R
GUAD PASS      CLOUDY    79  53  40 E10       30.27R
HOBBS          PTCLDY    82  55  39 SE15      30.14R
MARFA          PTCLDY    78  54  43 E13       30.23R
MIDLAND AIRPK  PTCLDY    85  60  42 SE13G21   30.13R
MIDLAND INTL   CLEAR     85  59  41 SE18      30.11S
ODESSA         PTCLDY    85  59  41 SE13      30.13R
PECOS          PTCLDY    90  56  32 SE13      30.04S
PRESIDIO       FAIR      91  55  28 NE15G23   30.05S
SEMINOLE       MOCLDY    82  59  45 SE14      30.15R
SNYDER         CLEAR     80  63  56 E13       30.15S
WINK           CLOUDY    90  55  30 MISG      30.05S
$$
...OTHER STATIONS IN TEXAS...

CITY           SKY/WX    TMP DP  RH WIND       PRES   REMARKS
ABILENE        CLEAR     79  66  64 E7        30.15R
AMARILLO       CLOUDY    72  63  73 SE21G29   30.20R
AUSTIN         PTCLDY    80  73  79 E8        30.07S
BROWNSVILLE    MOCLDY    81  76  84 E5        30.04R
CORPUS CHRISTI MOCLDY    84  75  74 SE10      30.04S
DALLAS FTW     PTCLDY    82  62  50 E10       30.11R
DEL RIO        CLEAR     82  71  69 SE10      30.03R
EL PASO        TSTM      66  63  88 E23G40    30.16F VSB 3/4
HOUSTON INT    MOCLDY    76  72  87 NE7       30.09R
LUBBOCK        MOCLDY    80  61  52 SE18G31   30.16R
SAN ANGELO     CLEAR     82  64  54 E12       30.11R
SAN ANTONIO    PTCLDY    80  72  76 SE13      30.09R
WACO           PTCLDY    78  71  79 NE5       30.11R
WICHITA FALLS  NOT AVBL
$$
...OTHER LOCATIONS IN NEW MEXICO...

CITY           SKY/WX    TMP DP  RH WIND       PRES   REMARKS
ALAMOGORDO     CLOUDY    75  54  46 N20G31    30.24R
ALBUQUERQUE    CLOUDY    71  52  50 S14       30.22F
CANNON AFB     CLOUDY    75  66  73 SE8       30.19R
CLOVIS         CLOUDY    78  62  57 S8        30.18S
HOLLOMAN AFB   RAIN      72  61  68 N20       30.26R
ROSWELL        PTCLDY    86  55  34 S10       30.12R
RUIDOSO        RAIN      55  54  94 NW8G20    30.47R
SANTA FE       CLOUDY    69  50  50 W17       30.26R
TRUTH OR CONSE CLOUDY    80  45  28 W18G33    30.15F
TUCUMCARI      TSTM      77  64  64 CALM      30.17R
$$



USA.gov is the U.S. government's official web portal to all federal, state and local government web resources and services.